User: anonymous   Login
Location: Newark
(7.0858°N, 171.3717°E)
Time: 18:27:46
(UTC+00:00)
Language:

Courier 1B Rocket - Orbit

View from above orbital plane
View from above orbital plane
View from above satellite
View from above satellite

Ground track
Ground track

The orbit data is extracted from the following two-line orbital elements,

1 00059U 60013B   21212.89575772  .00000090  00000-0  34830-5 0  9994
2 00059  28.2475 274.9817 0189209 122.7154 239.1783 13.52986509  1757
Epoch (UTC): 31 July 2021 21:29:53
Eccentricity: 0.0189209
inclination: 28.2475°
perigee height: 920 km
apogee height: 1202 km
right ascension of ascending node: 274.9817°
argument of perigee: 122.7154°
revolutions per day: 13.52986509
mean anomaly at epoch: 239.1783°
orbit number at epoch: 175

The dashed part of the orbit path shows where the satellite is in the earth's shadow,  

DLR